contact:dominique.lefevre@mio.osupytheas.fr, maurice.libes@osupytheas.fr, didier.mallarino@osupytheas.fr
Project:EMSO http://www.emso-fr.org/EMSO-France
Depth: 2436.0 m
Title:EMSO Ligure Ouest : Data MII capteur CSTAR
DateTime,Latitude,Longitude,Instrument_Serial,Reference_Counts,Signal_Counts,Corrected_Signal_raw_counts,Calculated_Beam_c_inverse_meters,Internal_thermistor_counts
DateTime,Latitude,Longitude,Instrument_Serial,Reference_Counts,Signal_Counts,Corrected_Signal_raw_counts,Calculated_Beam_c_inverse_meters,Internal_thermistor_counts
2023-11-20T00:00:46,42.805,6.029,CST-1368DR,4107,4347,11217,01.323,553
2023-11-20T00:03:48,42.805,6.029,CST-1368DR,4107,4348,11218,01.323,553
2023-11-20T00:06:49,42.805,6.029,CST-1368DR,4107,4345,11212,01.325,553
2023-11-20T00:09:51,42.805,6.029,CST-1368DR,4107,4344,11209,01.326,553
2023-11-20T00:12:53,42.805,6.029,CST-1368DR,4107,4342,11204,01.328,552
2023-11-20T00:15:54,42.805,6.029,CST-1368DR,4107,4347,11215,01.324,553
2023-11-20T00:18:56,42.805,6.029,CST-1368DR,4107,4346,11213,01.325,553
2023-11-20T00:21:57,42.805,6.029,CST-1368DR,4107,4345,11212,01.325,553
2023-11-20T00:24:59,42.805,6.029,CST-1368DR,4107,4344,11207,01.327,553
2023-11-20T00:28:00,42.805,6.029,CST-1368DR,4107,4347,11216,01.324,553
2023-11-20T00:31:02,42.805,6.029,CST-1368DR,4107,4346,11214,01.325,553
2023-11-20T00:34:04,42.805,6.029,CST-1368DR,4107,4344,11208,01.327,552
2023-11-20T00:37:05,42.805,6.029,CST-1368DR,4107,4339,11195,01.331,553
2023-11-20T00:40:07,42.805,6.029,CST-1368DR,4107,4340,11198,01.330,553
2023-11-20T00:43:08,42.805,6.029,CST-1368DR,4107,4345,11210,01.326,553
2023-11-20T00:46:10,42.805,6.029,CST-1368DR,4107,4345,11211,01.326,553
2023-11-20T00:49:12,42.805,6.029,CST-1368DR,4107,4347,11216,01.324,553
2023-11-20T00:52:13,42.805,6.029,CST-1368DR,4107,4346,11213,01.325,553
2023-11-20T00:55:15,42.805,6.029,CST-1368DR,4107,4347,11215,01.324,553
2023-11-20T00:58:16,42.805,6.029,CST-1368DR,4107,4347,11217,01.323,553
2023-11-20T01:01:18,42.805,6.029,CST-1368DR,4107,4353,11231,01.318,553
2023-11-20T01:04:19,42.805,6.029,CST-1368DR,4107,4347,11216,01.324,553
2023-11-20T01:07:21,42.805,6.029,CST-1368DR,4107,4348,11218,01.323,553
2023-11-20T01:10:23,42.805,6.029,CST-1368DR,4107,4345,11211,01.326,553
2023-11-20T01:13:24,42.805,6.029,CST-1368DR,4107,4346,11213,01.325,553
2023-11-20T01:16:26,42.805,6.029,CST-1368DR,4107,4346,11213,01.325,553
2023-11-20T01:19:27,42.805,6.029,CST-1368DR,4107,4346,11214,01.325,553
2023-11-20T01:22:29,42.805,6.029,CST-1368DR,4107,4345,11212,01.325,552
2023-11-20T01:25:30,42.805,6.029,CST-1368DR,4107,4344,11208,01.327,553
2023-11-20T01:28:32,42.805,6.029,CST-1368DR,4107,4345,11212,01.325,553
2023-11-20T01:31:34,42.805,6.029,CST-1368DR,4107,4343,11207,01.327,553
2023-11-20T01:34:35,42.805,6.029,CST-1368DR,4107,4346,11214,01.325,553
2023-11-20T01:37:37,42.805,6.029,CST-1368DR,4107,4344,11209,01.326,553
2023-11-20T01:40:38,42.805,6.029,CST-1368DR,4107,4346,11213,01.325,553
2023-11-20T01:43:40,42.805,6.029,CST-1368DR,4107,4345,11211,01.326,553
2023-11-20T01:46:42,42.805,6.029,CST-1368DR,4107,4344,11208,01.327,553
2023-11-20T01:49:43,42.805,6.029,CST-1368DR,4107,4343,11207,01.327,553
2023-11-20T01:52:45,42.805,6.029,CST-1368DR,4107,4345,11211,01.326,553
2023-11-20T01:55:46,42.805,6.029,CST-1368DR,4107,4348,11219,01.323,553
2023-11-20T01:58:48,42.805,6.029,CST-1368DR,4107,4345,11210,01.326,553
2023-11-20T02:01:49,42.805,6.029,CST-1368DR,4107,4345,11211,01.326,553
2023-11-20T02:04:51,42.805,6.029,CST-1368DR,4107,4343,11207,01.327,553
2023-11-20T02:07:53,42.805,6.029,CST-1368DR,4107,4344,11207,01.327,553
2023-11-20T02:10:54,42.805,6.029,CST-1368DR,4107,4344,11209,01.326,553
2023-11-20T02:13:56,42.805,6.029,CST-1368DR,4107,4343,11205,01.328,553
2023-11-20T02:16:57,42.805,6.029,CST-1368DR,4107,4344,11208,01.327,553
2023-11-20T02:19:59,42.805,6.029,CST-1368DR,4107,4346,11213,01.325,553
2023-11-20T02:23:00,42.805,6.029,CST-1368DR,4107,4345,11210,01.326,553
2023-11-20T02:26:02,42.805,6.029,CST-1368DR,4107,4343,11207,01.327,553
2023-11-20T02:29:04,42.805,6.029,CST-1368DR,4107,4342,11204,01.328,553
2023-11-20T02:32:05,42.805,6.029,CST-1368DR,4107,4343,11207,01.327,553
2023-11-20T02:35:07,42.805,6.029,CST-1368DR,4107,4343,11205,01.328,553
2023-11-20T02:38:08,42.805,6.029,CST-1368DR,4107,4343,11205,01.328,553
2023-11-20T02:41:10,42.805,6.029,CST-1368DR,4107,4344,11208,01.327,553
2023-11-20T02:44:12,42.805,6.029,CST-1368DR,4107,4344,11207,01.327,553
2023-11-20T02:47:13,42.805,6.029,CST-1368DR,4107,4344,11209,01.326,553
2023-11-20T02:50:15,42.805,6.029,CST-1368DR,4107,4344,11208,01.327,553
2023-11-20T02:53:16,42.805,6.029,CST-1368DR,4107,4346,11213,01.325,553
2023-11-20T02:56:18,42.805,6.029,CST-1368DR,4107,4343,11206,01.327,553
2023-11-20T02:59:19,42.805,6.029,CST-1368DR,4107,4342,11202,01.329,553
2023-11-20T03:02:21,42.805,6.029,CST-1368DR,4107,4344,11208,01.327,553
2023-11-20T03:05:23,42.805,6.029,CST-1368DR,4107,4344,11207,01.327,552
2023-11-20T03:08:24,42.805,6.029,CST-1368DR,4107,4340,11199,01.330,553
2023-11-20T03:11:26,42.805,6.029,CST-1368DR,4107,4342,11204,01.328,553
2023-11-20T03:14:27,42.805,6.029,CST-1368DR,4107,4348,11218,01.323,553
2023-11-20T03:17:29,42.805,6.029,CST-1368DR,4107,4343,11206,01.327,553
2023-11-20T03:20:30,42.805,6.029,CST-1368DR,4107,4343,11205,01.328,553
2023-11-20T03:23:32,42.805,6.029,CST-1368DR,4107,4342,11204,01.328,553
2023-11-20T03:26:34,42.805,6.029,CST-1368DR,4107,4343,11205,01.328,553
2023-11-20T03:29:35,42.805,6.029,CST-1368DR,4107,4344,11208,01.327,553
2023-11-20T03:32:37,42.805,6.029,CST-1368DR,4107,4351,11226,01.320,553
2023-11-20T03:35:38,42.805,6.029,CST-1368DR,4107,4347,11216,01.324,553
2023-11-20T03:38:40,42.805,6.029,CST-1368DR,4107,4341,11200,01.330,553
2023-11-20T03:41:42,42.805,6.029,CST-1368DR,4107,4355,11238,01.316,553
2023-11-20T03:44:43,42.805,6.029,CST-1368DR,4107,4355,11236,01.317,553
2023-11-20T03:47:45,42.805,6.029,CST-1368DR,4107,4355,11237,01.316,553
2023-11-20T03:50:46,42.805,6.029,CST-1368DR,4107,4352,11230,01.319,553
2023-11-20T03:53:48,42.805,6.029,CST-1368DR,4107,4355,11236,01.317,553
2023-11-20T03:56:49,42.805,6.029,CST-1368DR,4107,4354,11233,01.318,553
2023-11-20T03:59:51,42.805,6.029,CST-1368DR,4107,4355,11236,01.317,553
2023-11-20T04:02:53,42.805,6.029,CST-1368DR,4107,4355,11238,01.316,553
2023-11-20T04:05:54,42.805,6.029,CST-1368DR,4107,4351,11227,01.320,553
2023-11-20T04:08:56,42.805,6.029,CST-1368DR,4107,4355,11236,01.317,553
2023-11-20T04:11:57,42.805,6.029,CST-1368DR,4107,4356,11240,01.315,553
2023-11-20T04:14:59,42.805,6.029,CST-1368DR,4107,4351,11226,01.320,553
2023-11-20T04:18:00,42.805,6.029,CST-1368DR,4107,4354,11235,01.317,553
2023-11-20T04:21:02,42.805,6.029,CST-1368DR,4107,4354,11235,01.317,553
2023-11-20T04:24:04,42.805,6.029,CST-1368DR,4107,4354,11234,01.317,553
2023-11-20T04:27:05,42.805,6.029,CST-1368DR,4107,4355,11236,01.317,553
2023-11-20T04:30:07,42.805,6.029,CST-1368DR,4107,4355,11236,01.317,553
2023-11-20T04:33:08,42.805,6.029,CST-1368DR,4107,4351,11227,01.320,553
2023-11-20T04:36:10,42.805,6.029,CST-1368DR,4107,4353,11233,01.318,553
2023-11-20T04:39:12,42.805,6.029,CST-1368DR,4107,4354,11234,01.317,553
2023-11-20T04:42:13,42.805,6.029,CST-1368DR,4107,4355,11236,01.317,553
2023-11-20T04:45:15,42.805,6.029,CST-1368DR,4107,4353,11231,01.318,553
2023-11-20T04:48:16,42.805,6.029,CST-1368DR,4107,4352,11229,01.319,553
2023-11-20T04:51:18,42.805,6.029,CST-1368DR,4107,4352,11230,01.319,553
2023-11-20T04:54:19,42.805,6.029,CST-1368DR,4107,4350,11224,01.321,553
2023-11-20T04:57:21,42.805,6.029,CST-1368DR,4107,4353,11233,01.318,553
2023-11-20T05:00:23,42.805,6.029,CST-1368DR,4107,4354,11233,01.318,553
2023-11-20T05:03:24,42.805,6.029,CST-1368DR,4107,4353,11233,01.318,553
2023-11-20T05:06:26,42.805,6.029,CST-1368DR,4107,4351,11227,01.320,553
2023-11-20T05:09:27,42.805,6.029,CST-1368DR,4106,4353,11234,01.317,553
2023-11-20T05:12:29,42.805,6.029,CST-1368DR,4107,4356,11239,01.316,553
2023-11-20T05:15:30,42.805,6.029,CST-1368DR,4106,4355,11239,01.316,553
2023-11-20T05:18:32,42.805,6.029,CST-1368DR,4107,4355,11237,01.316,553
2023-11-20T05:21:34,42.805,6.029,CST-1368DR,4107,4355,11238,01.316,553
2023-11-20T05:24:35,42.805,6.029,CST-1368DR,4107,4352,11229,01.319,553
2023-11-20T05:27:37,42.805,6.029,CST-1368DR,4107,4355,11236,01.317,553
2023-11-20T05:30:41,42.805,6.029,CST-1368DR,4107,4355,11237,01.316,553
2023-11-20T05:33:42,42.805,6.029,CST-1368DR,4107,4352,11228,01.320,553
2023-11-20T05:36:44,42.805,6.029,CST-1368DR,4106,4352,11231,01.318,553
2023-11-20T05:39:45,42.805,6.029,CST-1368DR,4106,4353,11234,01.317,553
2023-11-20T05:42:47,42.805,6.029,CST-1368DR,4107,4355,11237,01.316,553
2023-11-20T05:45:49,42.805,6.029,CST-1368DR,4107,4352,11229,01.319,553
2023-11-20T05:48:50,42.805,6.029,CST-1368DR,4107,4355,11236,01.317,553
2023-11-20T05:51:52,42.805,6.029,CST-1368DR,4106,4354,11237,01.316,553
2023-11-20T05:54:53,42.805,6.029,CST-1368DR,4107,4355,11236,01.317,553
2023-11-20T05:57:55,42.805,6.029,CST-1368DR,4106,4356,11241,01.315,553
2023-11-20T06:00:56,42.805,6.029,CST-1368DR,4106,4358,11247,01.313,553
2023-11-20T06:03:58,42.805,6.029,CST-1368DR,4106,4355,11239,01.316,553
2023-11-20T06:07:00,42.805,6.029,CST-1368DR,4106,4355,11240,01.315,553
2023-11-20T06:10:01,42.805,6.029,CST-1368DR,4106,4353,11234,01.317,553
2023-11-20T06:13:03,42.805,6.029,CST-1368DR,4106,4360,11253,01.311,553
2023-11-20T06:16:04,42.805,6.029,CST-1368DR,4106,4354,11237,01.316,553
2023-11-20T06:19:06,42.805,6.029,CST-1368DR,4106,4355,11240,01.315,553
2023-11-20T06:22:07,42.805,6.029,CST-1368DR,4106,4354,11236,01.317,553
2023-11-20T06:25:09,42.805,6.029,CST-1368DR,4106,4355,11239,01.316,553
2023-11-20T06:28:11,42.805,6.029,CST-1368DR,4106,4354,11237,01.316,553
2023-11-20T06:31:12,42.805,6.029,CST-1368DR,4106,4354,11236,01.317,553
2023-11-20T06:34:14,42.805,6.029,CST-1368DR,4106,4354,11236,01.317,553
2023-11-20T06:37:15,42.805,6.029,CST-1368DR,4106,4353,11235,01.317,553
2023-11-20T06:40:17,42.805,6.029,CST-1368DR,4106,4359,11249,01.312,553
2023-11-20T06:43:19,42.805,6.029,CST-1368DR,4106,4352,11233,01.318,552
2023-11-20T06:46:20,42.805,6.029,CST-1368DR,4106,4353,11233,01.318,553
2023-11-20T06:49:22,42.805,6.029,CST-1368DR,4106,4355,11240,01.315,553
2023-11-20T06:52:23,42.805,6.029,CST-1368DR,4106,4353,11233,01.318,553
2023-11-20T06:55:25,42.805,6.029,CST-1368DR,4106,4354,11238,01.316,553
2023-11-20T06:58:26,42.805,6.029,CST-1368DR,4106,4354,11236,01.317,553
2023-11-20T07:01:28,42.805,6.029,CST-1368DR,4106,4355,11239,01.316,553
2023-11-20T07:04:30,42.805,6.029,CST-1368DR,4106,4354,11236,01.317,553
2023-11-20T07:07:31,42.805,6.029,CST-1368DR,4106,4355,11240,01.315,553
2023-11-20T07:10:33,42.805,6.029,CST-1368DR,4106,4354,11237,01.316,553
2023-11-20T07:13:34,42.805,6.029,CST-1368DR,4106,4355,11240,01.315,553
2023-11-20T07:16:36,42.805,6.029,CST-1368DR,4106,4351,11230,01.319,553
2023-11-20T07:19:38,42.805,6.029,CST-1368DR,4106,4351,11229,01.319,553
2023-11-20T07:22:39,42.805,6.029,CST-1368DR,4106,4347,11220,01.322,553
2023-11-20T07:25:41,42.805,6.029,CST-1368DR,4106,4351,11228,01.320,553
2023-11-20T07:28:42,42.805,6.029,CST-1368DR,4106,4351,11229,01.319,553
2023-11-20T07:31:44,42.805,6.029,CST-1368DR,4106,4347,11218,01.323,553
2023-11-20T07:34:46,42.805,6.029,CST-1368DR,4106,4350,11227,01.320,553
2023-11-20T07:37:47,42.805,6.029,CST-1368DR,4106,4350,11227,01.320,553
2023-11-20T07:40:49,42.805,6.029,CST-1368DR,4106,4352,11232,01.318,553
2023-11-20T07:43:50,42.805,6.029,CST-1368DR,4106,4351,11229,01.319,553
2023-11-20T07:46:52,42.805,6.029,CST-1368DR,4106,4349,11225,01.321,553
2023-11-20T07:49:53,42.805,6.029,CST-1368DR,4106,4350,11227,01.320,553
2023-11-20T07:52:55,42.805,6.029,CST-1368DR,4106,4352,11231,01.318,553
2023-11-20T07:55:57,42.805,6.029,CST-1368DR,4106,4349,11225,01.321,553
2023-11-20T07:58:58,42.805,6.029,CST-1368DR,4106,4351,11229,01.319,553
2023-11-20T08:02:00,42.805,6.029,CST-1368DR,4106,4355,11238,01.316,553
2023-11-20T08:05:01,42.805,6.029,CST-1368DR,4106,4351,11230,01.319,553
2023-11-20T08:08:03,42.805,6.029,CST-1368DR,4106,4352,11231,01.318,553
2023-11-20T08:11:04,42.805,6.029,CST-1368DR,4106,4352,11231,01.318,552
2023-11-20T08:14:06,42.805,6.029,CST-1368DR,4106,4352,11231,01.318,553
2023-11-20T08:17:08,42.805,6.029,CST-1368DR,4106,4354,11238,01.316,553
2023-11-20T08:20:09,42.805,6.029,CST-1368DR,4106,4353,11235,01.317,553
2023-11-20T08:23:11,42.805,6.029,CST-1368DR,4106,4353,11233,01.318,553
2023-11-20T08:26:12,42.805,6.029,CST-1368DR,4106,4354,11237,01.316,553
2023-11-20T08:29:14,42.805,6.029,CST-1368DR,4106,4352,11233,01.318,553
2023-11-20T08:32:16,42.805,6.029,CST-1368DR,4106,4352,11231,01.318,553
2023-11-20T08:35:17,42.805,6.029,CST-1368DR,4106,4352,11233,01.318,553
2023-11-20T08:38:19,42.805,6.029,CST-1368DR,4106,4349,11225,01.321,552
2023-11-20T08:41:20,42.805,6.029,CST-1368DR,4106,4353,11233,01.318,553
2023-11-20T08:44:22,42.805,6.029,CST-1368DR,4106,4352,11232,01.318,552
2023-11-20T08:47:23,42.805,6.029,CST-1368DR,4106,4352,11233,01.318,553
2023-11-20T08:50:25,42.805,6.029,CST-1368DR,4106,4352,11231,01.318,553
2023-11-20T08:53:27,42.805,6.029,CST-1368DR,4106,4353,11234,01.317,553
2023-11-20T08:56:28,42.805,6.029,CST-1368DR,4106,4352,11233,01.318,553
2023-11-20T08:59:30,42.805,6.029,CST-1368DR,4106,4353,11233,01.318,553
2023-11-20T09:02:31,42.805,6.029,CST-1368DR,4106,4351,11230,01.319,553
2023-11-20T09:05:33,42.805,6.029,CST-1368DR,4106,4352,11231,01.318,553
2023-11-20T09:08:34,42.805,6.029,CST-1368DR,4106,4351,11230,01.319,553
2023-11-20T09:11:36,42.805,6.029,CST-1368DR,4106,4351,11230,01.319,553
2023-11-20T09:14:38,42.805,6.029,CST-1368DR,4106,4351,11229,01.319,553
2023-11-20T09:17:39,42.805,6.029,CST-1368DR,4106,4351,11229,01.319,553
2023-11-20T09:20:41,42.805,6.029,CST-1368DR,4106,4350,11227,01.320,553
2023-11-20T09:23:42,42.805,6.029,CST-1368DR,4106,4349,11224,01.321,553
2023-11-20T09:26:44,42.805,6.029,CST-1368DR,4106,4349,11224,01.321,553
2023-11-20T09:29:46,42.805,6.029,CST-1368DR,4106,4351,11230,01.319,553
2023-11-20T09:32:47,42.805,6.029,CST-1368DR,4106,4350,11227,01.320,553
2023-11-20T09:35:49,42.805,6.029,CST-1368DR,4106,4350,11227,01.320,553
2023-11-20T09:38:50,42.805,6.029,CST-1368DR,4106,4352,11231,01.318,553
2023-11-20T09:41:52,42.805,6.029,CST-1368DR,4106,4351,11229,01.319,553
2023-11-20T09:44:54,42.805,6.029,CST-1368DR,4106,4350,11227,01.320,553
2023-11-20T09:47:55,42.805,6.029,CST-1368DR,4106,4351,11230,01.319,553
2023-11-20T09:50:57,42.805,6.029,CST-1368DR,4106,4351,11230,01.319,553
2023-11-20T09:53:58,42.805,6.029,CST-1368DR,4106,4352,11231,01.318,553
2023-11-20T09:57:00,42.805,6.029,CST-1368DR,4106,4352,11232,01.318,553
2023-11-20T10:00:01,42.805,6.029,CST-1368DR,4106,4351,11230,01.319,553
2023-11-20T10:03:03,42.805,6.029,CST-1368DR,4106,4353,11233,01.318,553
2023-11-20T10:06:05,42.805,6.029,CST-1368DR,4106,4352,11231,01.318,553
2023-11-20T10:09:06,42.805,6.029,CST-1368DR,4106,4349,11224,01.321,553
2023-11-20T10:12:08,42.805,6.029,CST-1368DR,4106,4348,11222,01.322,553
2023-11-20T10:15:09,42.805,6.029,CST-1368DR,4106,4351,11230,01.319,552
2023-11-20T10:18:11,42.805,6.029,CST-1368DR,4106,4350,11226,01.320,553
2023-11-20T10:21:13,42.805,6.029,CST-1368DR,4106,4349,11224,01.321,553
2023-11-20T10:24:14,42.805,6.029,CST-1368DR,4106,4350,11227,01.320,553
2023-11-20T10:27:16,42.805,6.029,CST-1368DR,4106,4349,11224,01.321,553
2023-11-20T10:30:17,42.805,6.029,CST-1368DR,4106,4350,11227,01.320,553
2023-11-20T10:33:19,42.805,6.029,CST-1368DR,4106,4349,11224,01.321,553
2023-11-20T10:36:20,42.805,6.029,CST-1368DR,4106,4350,11227,01.320,553
2023-11-20T10:39:22,42.805,6.029,CST-1368DR,4106,4349,11225,01.321,553
2023-11-20T10:42:24,42.805,6.029,CST-1368DR,4106,4349,11224,01.321,553
2023-11-20T10:45:25,42.805,6.029,CST-1368DR,4106,4350,11226,01.320,553
2023-11-20T10:48:27,42.805,6.029,CST-1368DR,4106,4350,11227,01.320,553
2023-11-20T10:51:28,42.805,6.029,CST-1368DR,4106,4349,11225,01.321,553
2023-11-20T10:54:30,42.805,6.029,CST-1368DR,4106,4349,11224,01.321,553
2023-11-20T10:57:31,42.805,6.029,CST-1368DR,4106,4350,11227,01.320,553
2023-11-20T11:00:33,42.805,6.029,CST-1368DR,4106,4349,11225,01.321,553
2023-11-20T11:03:35,42.805,6.029,CST-1368DR,4106,4349,11224,01.321,553
2023-11-20T11:06:36,42.805,6.029,CST-1368DR,4106,4350,11226,01.320,553
2023-11-20T11:09:38,42.805,6.029,CST-1368DR,4106,4349,11224,01.321,553
2023-11-20T11:12:39,42.805,6.029,CST-1368DR,4106,4349,11224,01.321,553
2023-11-20T11:15:41,42.805,6.029,CST-1368DR,4106,4349,11224,01.321,553
2023-11-20T11:18:43,42.805,6.029,CST-1368DR,4106,4350,11227,01.320,553
2023-11-20T11:21:44,42.805,6.029,CST-1368DR,4106,4349,11225,01.321,553
2023-11-20T11:24:46,42.805,6.029,CST-1368DR,4106,4348,11222,01.322,553
2023-11-20T11:27:47,42.805,6.029,CST-1368DR,4106,4350,11227,01.320,553
2023-11-20T11:30:49,42.805,6.029,CST-1368DR,4106,4349,11224,01.321,553
2023-11-20T11:33:50,42.805,6.029,CST-1368DR,4106,4351,11228,01.320,553
2023-11-20T11:36:52,42.805,6.029,CST-1368DR,4106,4350,11227,01.320,553
2023-11-20T11:39:54,42.805,6.029,CST-1368DR,4106,4351,11229,01.319,553
2023-11-20T11:42:55,42.805,6.029,CST-1368DR,4106,4351,11230,01.319,553
2023-11-20T11:45:57,42.805,6.029,CST-1368DR,4106,4351,11228,01.320,553
2023-11-20T11:48:58,42.805,6.029,CST-1368DR,4106,4351,11228,01.320,553
2023-11-20T11:52:00,42.805,6.029,CST-1368DR,4106,4356,11241,01.315,553
2023-11-20T11:55:01,42.805,6.029,CST-1368DR,4106,4351,11230,01.319,553
2023-11-20T11:58:03,42.805,6.029,CST-1368DR,4106,4350,11227,01.320,553
2023-11-20T12:01:05,42.805,6.029,CST-1368DR,4106,4351,11230,01.319,553
2023-11-20T12:04:06,42.805,6.029,CST-1368DR,4106,4351,11229,01.319,553
2023-11-20T12:07:08,42.805,6.029,CST-1368DR,4106,4349,11225,01.321,553
2023-11-20T12:10:09,42.805,6.029,CST-1368DR,4106,4351,11229,01.319,553
2023-11-20T12:13:11,42.805,6.029,CST-1368DR,4106,4351,11229,01.319,553
2023-11-20T12:16:12,42.805,6.029,CST-1368DR,4106,4349,11224,01.321,553
2023-11-20T12:19:14,42.805,6.029,CST-1368DR,4106,4350,11227,01.320,553
2023-11-20T12:22:16,42.805,6.029,CST-1368DR,4106,4349,11225,01.321,553
2023-11-20T12:25:17,42.805,6.029,CST-1368DR,4106,4347,11219,01.323,553
2023-11-20T12:28:19,42.805,6.029,CST-1368DR,4106,4351,11228,01.320,553
2023-11-20T12:31:20,42.805,6.029,CST-1368DR,4106,4349,11224,01.321,553
2023-11-20T12:34:22,42.805,6.029,CST-1368DR,4106,4349,11225,01.321,553
2023-11-20T12:37:24,42.805,6.029,CST-1368DR,4106,4351,11228,01.320,553
2023-11-20T12:40:25,42.805,6.029,CST-1368DR,4106,4351,11228,01.320,553
2023-11-20T12:43:27,42.805,6.029,CST-1368DR,4106,4350,11227,01.320,553
2023-11-20T12:46:28,42.805,6.029,CST-1368DR,4106,4350,11227,01.320,553
2023-11-20T12:49:30,42.805,6.029,CST-1368DR,4106,4350,11227,01.320,553
2023-11-20T12:52:31,42.805,6.029,CST-1368DR,4106,4350,11227,01.320,553
2023-11-20T12:55:33,42.805,6.029,CST-1368DR,4106,4351,11229,01.319,553
2023-11-20T12:58:35,42.805,6.029,CST-1368DR,4106,4350,11226,01.320,553
2023-11-20T13:01:36,42.805,6.029,CST-1368DR,4106,4351,11228,01.320,553
2023-11-20T13:04:38,42.805,6.029,CST-1368DR,4106,4351,11228,01.320,553
2023-11-20T13:07:39,42.805,6.029,CST-1368DR,4106,4348,11221,01.322,553
2023-11-20T13:10:41,42.805,6.029,CST-1368DR,4106,4349,11224,01.321,553
2023-11-20T13:13:42,42.805,6.029,CST-1368DR,4106,4348,11221,01.322,553
2023-11-20T13:16:44,42.805,6.029,CST-1368DR,4106,4349,11223,01.321,553
2023-11-20T13:19:46,42.805,6.029,CST-1368DR,4106,4350,11226,01.320,553
2023-11-20T13:22:47,42.805,6.029,CST-1368DR,4106,4349,11224,01.321,553
2023-11-20T13:25:49,42.805,6.029,CST-1368DR,4106,4349,11225,01.321,553
2023-11-20T13:28:50,42.805,6.029,CST-1368DR,4106,4351,11228,01.320,553
2023-11-20T13:31:52,42.805,6.029,CST-1368DR,4106,4348,11222,01.322,553
2023-11-20T13:34:53,42.805,6.029,CST-1368DR,4106,4348,11222,01.322,553
2023-11-20T13:37:55,42.805,6.029,CST-1368DR,4106,4350,11227,01.320,553
2023-11-20T13:40:57,42.805,6.029,CST-1368DR,4106,4350,11227,01.320,553
2023-11-20T13:43:58,42.805,6.029,CST-1368DR,4105,4347,11221,01.322,553
2023-11-20T13:47:00,42.805,6.029,CST-1368DR,4106,4348,11221,01.322,553
2023-11-20T13:50:01,42.805,6.029,CST-1368DR,4106,4349,11225,01.321,553
2023-11-20T13:53:03,42.805,6.029,CST-1368DR,4106,4349,11225,01.321,553
2023-11-20T13:56:05,42.805,6.029,CST-1368DR,4106,4350,11227,01.320,553
2023-11-20T13:59:06,42.805,6.029,CST-1368DR,4106,4348,11222,01.322,553
2023-11-20T14:02:08,42.805,6.029,CST-1368DR,4106,4349,11223,01.321,553
2023-11-20T14:05:09,42.805,6.029,CST-1368DR,4106,4350,11226,01.320,553
2023-11-20T14:08:11,42.805,6.029,CST-1368DR,4106,4346,11216,01.324,553
2023-11-20T14:11:12,42.805,6.029,CST-1368DR,4106,4348,11221,01.322,553
2023-11-20T14:14:14,42.805,6.029,CST-1368DR,4106,4349,11225,01.321,553
2023-11-20T14:17:16,42.805,6.029,CST-1368DR,4106,4351,11229,01.319,553
2023-11-20T14:20:17,42.805,6.029,CST-1368DR,4106,4350,11227,01.320,553
2023-11-20T14:23:19,42.805,6.029,CST-1368DR,4106,4351,11228,01.320,553
2023-11-20T14:26:20,42.805,6.029,CST-1368DR,4106,4350,11227,01.320,553
2023-11-20T14:29:22,42.805,6.029,CST-1368DR,4106,4351,11228,01.320,553
2023-11-20T14:32:23,42.805,6.029,CST-1368DR,4106,4350,11226,01.320,553
2023-11-20T14:35:25,42.805,6.029,CST-1368DR,4106,4351,11229,01.319,553
2023-11-20T14:38:27,42.805,6.029,CST-1368DR,4106,4349,11224,01.321,553
2023-11-20T14:41:28,42.805,6.029,CST-1368DR,4106,4350,11227,01.320,553
2023-11-20T14:44:30,42.805,6.029,CST-1368DR,4106,4354,11237,01.316,553
2023-11-20T14:47:31,42.805,6.029,CST-1368DR,4106,4352,11232,01.318,553
2023-11-20T14:50:33,42.805,6.029,CST-1368DR,4106,4351,11230,01.319,552
2023-11-20T14:53:35,42.805,6.029,CST-1368DR,4105,4351,11231,01.318,553
2023-11-20T14:56:36,42.805,6.029,CST-1368DR,4105,4349,11227,01.320,553
2023-11-20T14:59:38,42.805,6.029,CST-1368DR,4106,4350,11227,01.320,553
2023-11-20T15:02:39,42.805,6.029,CST-1368DR,4106,4351,11228,01.320,553
2023-11-20T15:05:41,42.805,6.029,CST-1368DR,4106,4349,11224,01.321,553
2023-11-20T15:08:42,42.805,6.029,CST-1368DR,4106,4353,11233,01.318,553
2023-11-20T15:11:44,42.805,6.029,CST-1368DR,4105,4351,11231,01.318,553
2023-11-20T15:14:46,42.805,6.029,CST-1368DR,4106,4349,11224,01.321,553
2023-11-20T15:17:47,42.805,6.029,CST-1368DR,4106,4349,11224,01.321,553
2023-11-20T15:20:49,42.805,6.029,CST-1368DR,4105,4350,11228,01.320,553
2023-11-20T15:23:50,42.805,6.029,CST-1368DR,4105,4347,11222,01.322,553
2023-11-20T15:26:52,42.805,6.029,CST-1368DR,4106,4352,11232,01.318,553
2023-11-20T15:29:53,42.805,6.029,CST-1368DR,4105,4349,11226,01.320,553
2023-11-20T15:32:58,42.805,6.029,CST-1368DR,4106,4351,11229,01.319,553
2023-11-20T15:36:00,42.805,6.029,CST-1368DR,4105,4349,11226,01.320,553
2023-11-20T15:39:01,42.805,6.029,CST-1368DR,4105,4349,11226,01.320,553
2023-11-20T15:42:03,42.805,6.029,CST-1368DR,4105,4349,11227,01.320,553
2023-11-20T15:45:04,42.805,6.029,CST-1368DR,4106,4348,11221,01.322,553
2023-11-20T15:48:06,42.805,6.029,CST-1368DR,4106,4351,11228,01.320,553
2023-11-20T15:51:08,42.805,6.029,CST-1368DR,4106,4348,11220,01.322,553
2023-11-20T15:54:09,42.805,6.029,CST-1368DR,4106,4347,11220,01.322,553
2023-11-20T15:57:11,42.805,6.029,CST-1368DR,4105,4350,11229,01.319,553
2023-11-20T16:00:12,42.805,6.029,CST-1368DR,4106,4347,11220,01.322,553
2023-11-20T16:03:14,42.805,6.029,CST-1368DR,4105,4350,11230,01.319,553
2023-11-20T16:06:15,42.805,6.029,CST-1368DR,4106,4348,11220,01.322,553
2023-11-20T16:09:17,42.805,6.029,CST-1368DR,4105,4351,11231,01.318,553
2023-11-20T16:12:19,42.805,6.029,CST-1368DR,4106,4347,11218,01.323,553
2023-11-20T16:15:20,42.805,6.029,CST-1368DR,4105,4349,11228,01.320,553
2023-11-20T16:18:22,42.805,6.029,CST-1368DR,4105,4348,11224,01.321,553
2023-11-20T16:21:23,42.805,6.029,CST-1368DR,4105,4348,11224,01.321,553
2023-11-20T16:24:25,42.805,6.029,CST-1368DR,4105,4350,11228,01.320,553
2023-11-20T16:27:27,42.805,6.029,CST-1368DR,4105,4349,11227,01.320,553
2023-11-20T16:30:28,42.805,6.029,CST-1368DR,4105,4350,11229,01.319,553
2023-11-20T16:33:30,42.805,6.029,CST-1368DR,4105,4349,11227,01.320,552
2023-11-20T16:36:31,42.805,6.029,CST-1368DR,4105,4350,11228,01.320,553